Location: Brachbach
(49.1847°N, 9.7240°E)
Time: 05:24:19
(UTC+00:00)

Cosmos 2219 Rocket - Pass Details

Date: 19 August 2024
Orbit: 826 x 846 km, 71.0° (Epoch: 16 September)

Event Time Altitude Azimuth Distance (km) Brightness Sun altitude
Exits shadow 21:26:17 14° 78° (ENE) 2,169 4.1 -23.1°
Drops below altitude 10° 21:28:00 10° 61° (ENE) 2,477 4.6 -23.3°
Sets 21:31:21 0° 42° (NE) 3,418 5.6 -23.6°
